Regional Weather Roundup
Issued by NWS

Home | Current Version | Previous Version | Text Only | Print | Product List | Glossary Off
Versions: 1 2 3 4 5 6 7 8 9 10 11 12 13 14 15 16 17 18 19 20 21 22 23 24 25 26 27 28 29 30 31 32 33 34 35 36 37 38 39 40 41 42 43 44 45 46 47 48 49 50

000
ASUS45 KBOU 191710
RWRCO

WEATHER ROUNDUP FOR COLORADO
NATIONAL WEATHER SERVICE PUEBLO CO
1100 AM MDT THU APR 19 2018

NOTE: "FAIR" INDICATES FEW OR NO CLOUDS BELOW 12000 FEET WITH NO
SIGNIFICANT WEATHER AND/OR OBSTRUCTIONS TO VISIBILITY.

COZ001>005-013-030-031-191800-
...NORTHWEST COLORADO...

CITY           SKY/WX    TMP DP  RH WIND       PRES   REMARKS
CRAIG          PTSUNNY   59  22  24 E9        30.01F
HAYDEN         MOSUNNY   56  16  20 E12       30.04F
MEEKER         PTSUNNY   54  27  35 E3        30.00F
RABBIT EARS PA NOT AVBL
STEAMBOAT SPGS FAIR      52  19  27 SE5       30.05F
WALDEN         FAIR      48   7  18 CALM      30.13F
$$

COZ006>008-011-191800-
...WEST CENTRAL VALLEYS...

CITY           SKY/WX    TMP DP  RH WIND       PRES   REMARKS
GRAND JUNCTION MOSUNNY   61  13  15 SE8G17    29.93F
MONTROSE       SUNNY     65   4   9 SE12      29.98F
EAGLE          MOSUNNY   47  12  24 S3        30.10F
RIFLE          MOSUNNY   55  18  23 SW3       29.98F
DELTA          NOT AVBL
NUCLA          FAIR      66   3   8 S20G37    30.01F HAZE
$$

COZ017>023-064>068-191800-
...SOUTHWEST COLORADO...

CITY           SKY/WX    TMP DP  RH WIND       PRES   REMARKS
DURANGO        PTSUNNY   57  12  17 SE18G24   30.13F
CORTEZ         SUNNY     63   7  11 SE18G30   30.03F
PAGOSA SPRINGS FAIR      53   6  14 S12       30.20F
TELLURIDE      SUNNY     51   2  13 SE17G30   30.14F
WOLF CREEK PAS MOSUNNY   34  10  37 S21G35    30.33F WCI  22
$$

COZ009-010-012-014-032>034-037-058>063-191800-
...CENTRAL COLORADO...

CITY           SKY/WX    TMP DP  RH WIND       PRES   REMARKS
ASPEN          SUNNY     56   4  12 S8G18     30.08F
BUENA VISTA    FAIR      44   6  20 E5        30.22F
COPPER MTN     NOT AVBL
BERTHOUD PASS  FAIR      28  18  64 SE13G22   30.30S WCI  18
COTTONWOOD PAS SUNNY     43   9  24 E6        30.25F
GUNNISON       SUNNY     56   8  14 SE18      30.11F
KREMMLING      MOSUNNY   52  14  22 CALM      30.13F
LEADVILLE      MOSUNNY   37   9  31 VRB3      30.21F
MONARCH PASS   MOSUNNY   34   1  25 S17G26    30.41S WCI  23
SALIDA         FAIR      47   8  19 E14G20    30.30F
SUNLIGHT       MOSUNNY   41   1  19 SE7       30.22S
WILKERSON PASS MOSUNNY   34   1  25 S5G18     30.33S WCI  30
$$

COZ069>075-191800-
...SAN LUIS VALLEY/SANGRE DE CRISTO MOUNTAINS...

CITY           SKY/WX    TMP DP  RH WIND       PRES   REMARKS
ALAMOSA        SUNNY     55  11  17 S17G28    30.20F
DEL NORTE      FAIR      48   9  20 E9        30.22F
LA VETA PASS   SUNNY     46  12  25 S10G25    30.42S
SAGUACHE       NOT AVBL
$$

COZ035-036-038>040-191800-
...NORTHERN COLORADO FRONT RANGE...

CITY           SKY/WX    TMP DP  RH WIND       PRES   REMARKS
DENVER INTL AP PTSUNNY   55  16  21 SE14G25   30.20F
DMNS CITY PARK NOT AVBL
AURORA         PTSUNNY   53  15  22 S10       30.20F
FRONT RANGE AP PTSUNNY   55  16  21 SE18G30   30.22F
ERIE MUNI ARPT FAIR      47  16  28 CALM      30.27F
BOULDER MUN AP FAIR      45  19  36 NE3       30.22F
CENTENNIAL     PTSUNNY   51  16  24 S12       30.20F
BROOMFIELD     PTSUNNY   46  16  29 N5        30.22F
LOVELAND       MOSUNNY   47  22  37 W5        30.23F
LONGMONT       NOT AVBL
$$

COZ041-046-047-076>085-087-088-191800-
...PIKES PEAK/PALMER DIVIDE AND SOUTHERN FOOTHILLS...

CITY           SKY/WX    TMP DP  RH WIND       PRES   REMARKS
COLO. SPRINGS  MOSUNNY   48  11  22 SE14G23   30.26F
A. F. ACADEMY  MOSUNNY   47  11  23 SE13      30.25S
SCHRIEVER AFB  NOT AVBL
CHEYENNE MTN   NOT AVBL
ELLICOTT         N/A    N/A N/A N/A S25G32    30.24F
FALCON         FAIR      46   8  21 S16G22    30.28S
FORT CARSON    SUNNY     48  13  24 SE6       30.25F
LIMON          PTSUNNY   50  19  29 SE30G47   30.27F
MONUMENT HILL  MOSUNNY   46  12  25 S24G35    30.23F
CANON CITY     FAIR      50  16  25 E6        30.24F
WALSENBURG     FAIR      54  14  20 N5        30.23F
TRINIDAD       SUNNY     60  12  15 S22G29    30.24F
$$

COZ042>045-048>051-090-091-191800-
...NORTHEAST COLORADO...

CITY           SKY/WX    TMP DP  RH WIND       PRES   REMARKS
GREELEY ARPT   PTSUNNY   57  18  21 SE18G26   30.21F
AKRON          MOSUNNY   53  28  38 SE26G35   30.28F
BURLINGTON     SUNNY     55  28  35 S23G33    30.35F
WRAY           FAIR      55  30  38 SE16G24   30.35F
YUMA           NOT AVBL
STERLING       NOT AVBL
HOLYOKE        FAIR      55  32  41 S17G26    30.35F
FORT MORGAN    FAIR      54  16  23 SE22G32   30.26F
$$

COZ086-089-092>099-191800-
...SOUTHEAST COLORADO...

CITY           SKY/WX    TMP DP  RH WIND       PRES   REMARKS
PUEBLO         SUNNY     50  14  23 E5        30.25F
LA JUNTA       SUNNY     63  11  13 SE24G30   30.25F
LAMAR          SUNNY     58  24  27 S25G35    30.30F
SPRINGFIELD      N/A     55  23  28 S25G32    30.34F
$$




USA.gov is the U.S. government's official web portal to all federal, state and local government web resources and services.